{"data":{"norad_id":59553,"intl_designator":"2024-074V","name":"STARLINK-31723","alt_names":[],"object_type":"PAYLOAD","status":"ACTIVE","operator":null,"country":"US","launch_date":"2024-04-18","launch_site_code":"AFETR","launch_vehicle":null,"mission":null,"orbit_class":"UNKNOWN","rcs_meters":null,"size_class":null,"mass_kg":null,"dimensions":null,"purposes":["comms"],"wikipedia_slug":null,"has_3d_model":false,"image_url":null,"decayed_at":null,"tle_current":{"epoch":"2026-05-25T01:18:56.441088Z","epoch_age_seconds":73903,"freshness":"FRESH","line1":"1 59553U 24074V   26145.05481992  .00000539  00000+0  29116-4 0  9999","line2":"2 59553  43.0013 272.2293 0001264 274.2313  85.8394 15.27579273117691","mean_motion":15.27579273,"eccentricity":0.0001264,"inclination_deg":43.0013,"raan_deg":272.2293,"arg_perigee_deg":274.2313,"mean_anomaly_deg":85.8394,"bstar":2.9116e-5,"rev_number":11769,"period_min":94.266793576742,"perigee_km":482.18401874235,"apogee_km":483.91852713775,"semimajor_km":6861.1882729401,"source":"CELESTRAK","updated_at":"2026-05-25T13:38:18.983181Z"}}}